sat.trackr.live / text

‹ back to catalog

STARLINK-30221

NORAD 57418 · 2023-102Q

PAYLOAD ACTIVE UNKNOWN

§ Identity

Operator
Country
US
Launch date
2023-07-20
Launch site
AFWTR
Launch vehicle
Mass (kg)
RCS (m²)

Purposes: comms

External: N2YO · Heavens-Above · Gunter

§ Orbital elements

Epoch: 2026-09-20T22:00:03.000096Z

Period
92.12 min
Inclination
42.9990°
Eccentricity
0.0001879
Mean motion
15.63168212 rev/d
Perigee alt
377.2 km
Apogee alt
379.8 km
Semi-major
6,756.6 km
B*
5.6952e-3
RAAN
226.2399°
Arg perigee
280.5275°
Mean anomaly
74.5740°
Rev number
585

§ Raw data

STARLINK-302211 57418U 23102Q   26263.91670139  .00574291  00000+0  56952-2 0  99942 57418  42.9990 226.2399 0001879 280.5275  74.5740 15.63168212  5857

JSON: /api/v1/satellites/57418 · /tle

For live sub-satellite position, see the globe view (requires WebGL).

§ Visibility from observer

Set your observer location to see the next 7 days of passes ≥ 10°. The values pass through the URL so the page stays shareable.

No JS? Fill the form by hand. The geolocation button needs JavaScript.